Time,TemperatureF,DewpointF,PressureIn,WindDirection,WindDirectionDegrees,WindSpeedMPH,WindSpeedGustMPH,Humidity,HourlyPrecipIn,Conditions,Clouds,dailyrainin,SoftwareType,DateUTC
2013-03-10 00:00:00,44.9,30.7,30.22,NNE,18,0.0,0.0,57,0.00,,CLR,0.00,VWS V14.00,2013-03-10 05:00:00,
2013-03-10 00:05:00,45.8,31.7,30.22,NNE,18,0.0,0.0,58,0.00,,CLR,0.00,VWS V14.00,2013-03-10 05:05:00,
2013-03-10 00:10:00,45.4,31.5,30.22,NNE,18,0.0,0.0,58,0.00,,CLR,0.00,VWS V14.00,2013-03-10 05:10:00,
2013-03-10 00:15:00,44.2,30.2,30.22,NNE,18,0.0,0.0,58,0.00,,CLR,0.00,VWS V14.00,2013-03-10 05:15:00,
2013-03-10 00:20:00,44.7,30.8,30.22,NNE,18,0.0,0.0,58,0.00,,CLR,0.00,VWS V14.00,2013-03-10 05:20:00,
2013-03-10 00:25:00,44.1,30.5,30.22,NNE,18,0.0,0.0,59,0.00,,CLR,0.00,VWS V14.00,2013-03-10 05:25:00,
2013-03-10 00:30:00,44.2,30.6,30.23,NNE,18,0.0,0.0,59,0.00,,CLR,0.00,VWS V14.00,2013-03-10 05:30:00,
2013-03-10 00:35:00,43.8,30.2,30.23,NNE,18,0.0,0.0,58,0.00,,CLR,0.00,VWS V14.00,2013-03-10 05:35:00,
2013-03-10 00:40:00,43.5,29.9,30.23,NNE,18,0.0,0.0,58,0.00,,CLR,0.00,VWS V14.00,2013-03-10 05:40:00,
2013-03-10 00:45:00,43.6,29.9,30.23,NNE,18,0.0,0.0,58,0.00,,CLR,0.00,VWS V14.00,2013-03-10 05:45:00,
2013-03-10 00:50:00,43.8,30.2,30.23,NNE,18,0.0,0.0,59,0.00,,CLR,0.00,VWS V14.00,2013-03-10 05:50:00,
2013-03-10 00:55:00,44.7,31.2,30.23,NNE,18,0.0,0.0,59,0.00,,CLR,0.00,VWS V14.00,2013-03-10 05:55:00,
2013-03-10 00:59:00,45.2,32.6,30.21,NNE,18,0.0,0.0,61,0.00,,CLR,0.00,VWS V14.00,2013-03-10 05:59:00,
2013-03-10 01:00:00,44.0,30.5,30.22,NNE,18,0.0,0.0,59,0.00,,CLR,0.00,VWS V14.00,2013-03-10 06:00:00,
2013-03-10 01:01:00,45.2,32.6,30.21,NNE,18,0.0,0.0,61,0.00,,CLR,0.00,VWS V14.00,2013-03-10 06:01:00,
2013-03-10 01:02:00,45.3,32.6,30.21,NNE,18,0.0,0.0,61,0.00,,CLR,0.00,VWS V14.00,2013-03-10 06:02:00,
2013-03-10 01:03:00,45.1,32.4,30.21,NNE,18,0.0,0.0,61,0.00,,CLR,0.00,VWS V14.00,2013-03-10 06:03:00,
2013-03-10 01:04:00,45.1,32.4,30.21,NNE,18,0.0,0.0,61,0.00,,CLR,0.00,VWS V14.00,2013-03-10 06:04:00,
2013-03-10 01:05:00,43.3,29.9,30.22,NNE,18,0.0,0.0,59,0.00,,CLR,0.00,VWS V14.00,2013-03-10 06:05:00,
2013-03-10 01:10:00,43.8,30.5,30.22,NNE,18,0.0,0.0,59,0.00,,CLR,0.00,VWS V14.00,2013-03-10 06:10:00,
2013-03-10 01:15:00,44.6,31.4,30.22,NNE,18,0.0,0.0,60,0.00,,CLR,0.00,VWS V14.00,2013-03-10 06:15:00,
2013-03-10 01:20:00,43.6,30.6,30.22,NNE,18,0.0,0.0,60,0.00,,CLR,0.00,VWS V14.00,2013-03-10 06:20:00,
2013-03-10 01:25:00,44.4,31.5,30.22,NNE,18,0.0,0.0,60,0.00,,CLR,0.00,VWS V14.00,2013-03-10 06:25:00,
2013-03-10 01:30:00,43.0,30.1,30.22,NNE,18,0.0,0.0,60,0.00,,CLR,0.00,VWS V14.00,2013-03-10 06:30:00,
2013-03-10 01:35:00,42.6,29.8,30.21,NNE,18,0.0,0.0,60,0.00,,CLR,0.00,VWS V14.00,2013-03-10 06:35:00,
2013-03-10 01:40:00,43.8,31.0,30.21,NNE,18,0.0,0.0,60,0.00,,CLR,0.00,VWS V14.00,2013-03-10 06:40:00,
2013-03-10 01:45:00,43.7,31.1,30.21,NNE,18,0.0,0.0,61,0.00,,CLR,0.00,VWS V14.00,2013-03-10 06:45:00,
2013-03-10 01:50:00,45.1,32.5,30.21,NNE,18,0.0,0.0,61,0.00,,CLR,0.00,VWS V14.00,2013-03-10 06:50:00,
2013-03-10 01:55:00,44.8,32.2,30.21,NNE,18,0.0,0.0,61,0.00,,CLR,0.00,VWS V14.00,2013-03-10 06:55:00,
2013-03-10 03:03:00,45.2,32.5,30.21,NNE,18,0.0,0.0,61,0.00,,CLR,0.00,VWS V14.00,2013-03-10 07:03:00,
2013-03-10 03:08:00,45.2,32.4,30.20,NNE,18,0.0,0.0,61,0.00,,CLR,0.00,VWS V14.00,2013-03-10 07:08:00,
2013-03-10 03:13:00,44.3,31.5,30.20,NNE,18,0.0,0.0,61,0.00,,CLR,0.00,VWS V14.00,2013-03-10 07:13:00,
2013-03-10 03:18:00,44.2,31.5,30.20,NNE,18,0.0,0.0,61,0.00,,CLR,0.00,VWS V14.00,2013-03-10 07:18:00,
2013-03-10 03:23:00,44.0,31.5,30.20,NNE,18,0.0,0.0,61,0.00,,CLR,0.00,VWS V14.00,2013-03-10 07:23:00,
2013-03-10 03:28:00,44.0,31.7,30.20,NNE,18,0.0,0.0,62,0.00,,CLR,0.00,VWS V14.00,2013-03-10 07:28:00,
2013-03-10 03:33:00,44.0,32.0,30.20,NNE,18,0.0,0.0,62,0.00,,CLR,0.00,VWS V14.00,2013-03-10 07:33:00,
2013-03-10 03:38:00,43.2,31.4,30.20,NNE,18,0.0,0.0,63,0.00,,CLR,0.00,VWS V14.00,2013-03-10 07:38:00,
2013-03-10 03:43:00,42.9,31.1,30.19,NNE,18,0.0,0.0,63,0.00,,CLR,0.00,VWS V14.00,2013-03-10 07:43:00,
2013-03-10 03:48:00,42.8,31.3,30.19,NNE,18,0.0,0.0,64,0.00,,CLR,0.00,VWS V14.00,2013-03-10 07:48:00,
2013-03-10 03:53:00,42.2,31.0,30.19,NNE,18,0.0,0.0,64,0.00,,CLR,0.00,VWS V14.00,2013-03-10 07:53:00,
2013-03-10 03:58:00,41.9,31.1,30.19,NNE,18,0.0,0.0,65,0.00,,CLR,0.00,VWS V14.00,2013-03-10 07:58:00,
2013-03-10 04:03:00,41.6,31.0,30.19,NNE,18,0.0,0.0,66,0.00,,CLR,0.00,VWS V14.00,2013-03-10 08:03:00,
2013-03-10 04:08:00,41.5,31.0,30.19,NNE,18,0.0,0.0,66,0.00,,CLR,0.00,VWS V14.00,2013-03-10 08:08:00,
2013-03-10 04:13:00,41.4,31.0,30.19,NNE,18,0.0,0.0,66,0.00,,CLR,0.00,VWS V14.00,2013-03-10 08:13:00,
2013-03-10 04:18:00,41.4,31.3,30.19,NNE,18,0.0,0.0,67,0.00,,CLR,0.00,VWS V14.00,2013-03-10 08:18:00,
2013-03-10 04:23:00,41.3,31.2,30.18,NNE,18,0.0,0.0,67,0.00,,CLR,0.00,VWS V14.00,2013-03-10 08:23:00,
2013-03-10 04:28:00,40.6,30.6,30.18,NNE,18,0.0,0.0,67,0.00,,CLR,0.00,VWS V14.00,2013-03-10 08:28:00,
2013-03-10 04:33:00,40.3,30.5,30.18,NNE,18,0.0,0.0,68,0.00,,CLR,0.00,VWS V14.00,2013-03-10 08:33:00,
2013-03-10 04:38:00,40.1,30.7,30.18,NNE,18,0.0,0.0,69,0.00,,CLR,0.00,VWS V14.00,2013-03-10 08:38:00,
2013-03-10 04:43:00,38.8,29.7,30.18,NNE,18,0.0,0.0,70,0.00,,CLR,0.00,VWS V14.00,2013-03-10 08:43:00,
2013-03-10 04:48:00,38.9,30.0,30.18,NNE,18,0.0,0.0,70,0.00,,CLR,0.00,VWS V14.00,2013-03-10 08:48:00,
2013-03-10 04:53:00,39.6,31.0,30.18,NNE,18,0.0,0.0,71,0.00,,CLR,0.00,VWS V14.00,2013-03-10 08:53:00,
2013-03-10 04:58:00,39.6,31.2,30.18,NNE,18,0.0,0.0,72,0.00,,CLR,0.00,VWS V14.00,2013-03-10 08:58:00,
2013-03-10 05:03:00,39.4,31.1,30.18,NNE,18,0.0,0.0,72,0.00,,CLR,0.00,VWS V14.00,2013-03-10 09:03:00,
2013-03-10 05:08:00,38.1,29.9,30.18,NNE,18,0.0,0.0,72,0.00,,CLR,0.00,VWS V14.00,2013-03-10 09:08:00,
2013-03-10 05:13:00,39.8,31.5,30.18,NNE,18,0.0,0.0,72,0.00,,CLR,0.00,VWS V14.00,2013-03-10 09:13:00,
2013-03-10 05:18:00,41.0,32.5,30.19,NNE,18,0.0,0.0,71,0.00,,CLR,0.00,VWS V14.00,2013-03-10 09:18:00,
2013-03-10 05:23:00,40.9,32.3,30.19,NNE,18,0.0,0.0,71,0.00,,CLR,0.00,VWS V14.00,2013-03-10 09:23:00,
2013-03-10 05:28:00,41.4,32.6,30.19,NNE,18,0.0,0.0,71,0.00,,CLR,0.00,VWS V14.00,2013-03-10 09:28:00,
2013-03-10 05:33:00,41.6,32.7,30.20,NNE,18,0.0,0.0,70,0.00,,CLR,0.00,VWS V14.00,2013-03-10 09:33:00,
2013-03-10 05:38:00,41.9,32.8,30.20,NNE,18,0.0,0.0,70,0.00,,CLR,0.00,VWS V14.00,2013-03-10 09:38:00,
2013-03-10 05:43:00,41.7,32.4,30.20,NNE,18,0.0,0.0,69,0.00,,CLR,0.00,VWS V14.00,2013-03-10 09:43:00,
2013-03-10 05:48:00,41.9,32.5,30.20,NNE,18,0.0,0.0,69,0.00,,CLR,0.00,VWS V14.00,2013-03-10 09:48:00,
2013-03-10 05:53:00,41.8,32.3,30.20,NNE,18,0.0,0.0,69,0.00,,CLR,0.00,VWS V14.00,2013-03-10 09:53:00,
2013-03-10 05:58:00,42.0,32.7,30.20,NNE,18,0.0,0.0,69,0.00,,CLR,0.00,VWS V14.00,2013-03-10 09:58:00,
2013-03-10 06:03:00,41.8,32.5,30.20,NNE,18,0.0,0.0,69,0.00,,CLR,0.00,VWS V14.00,2013-03-10 10:03:00,
2013-03-10 06:08:00,41.7,32.4,30.20,NNE,18,0.0,0.0,69,0.00,,CLR,0.00,VWS V14.00,2013-03-10 10:08:00,
2013-03-10 06:13:00,41.6,32.5,30.20,NNE,18,0.0,0.0,70,0.00,,CLR,0.00,VWS V14.00,2013-03-10 10:13:00,
2013-03-10 06:18:00,41.4,32.2,30.20,NNE,18,0.0,0.0,70,0.00,,CLR,0.00,VWS V14.00,2013-03-10 10:18:00,
2013-03-10 06:23:00,41.3,32.1,30.20,NNE,18,0.0,0.0,70,0.00,,CLR,0.00,VWS V14.00,2013-03-10 10:23:00,
2013-03-10 06:28:00,41.3,32.3,30.20,NNE,18,0.0,0.0,70,0.00,,CLR,0.00,VWS V14.00,2013-03-10 10:28:00,
2013-03-10 06:33:00,41.3,32.3,30.20,NNE,18,0.0,0.0,70,0.00,,CLR,0.00,VWS V14.00,2013-03-10 10:33:00,
2013-03-10 06:38:00,41.3,32.5,30.20,NNE,18,0.0,0.0,71,0.00,,CLR,0.00,VWS V14.00,2013-03-10 10:38:00,
2013-03-10 06:43:00,41.4,32.8,30.20,NNE,18,0.0,0.0,71,0.00,,CLR,0.00,VWS V14.00,2013-03-10 10:43:00,
2013-03-10 06:48:00,41.2,32.8,30.20,NNE,18,0.0,0.0,72,0.00,,CLR,0.00,VWS V14.00,2013-03-10 10:48:00,
2013-03-10 06:53:00,41.1,32.8,30.20,NNE,18,0.0,0.0,72,0.00,,CLR,0.00,VWS V14.00,2013-03-10 10:53:00,
2013-03-10 06:58:00,41.0,32.8,30.20,NNE,18,0.0,0.0,72,0.00,,CLR,0.00,VWS V14.00,2013-03-10 10:58:00,
2013-03-10 07:03:00,41.0,33.0,30.20,NNE,18,0.0,0.0,73,0.00,,CLR,0.00,VWS V14.00,2013-03-10 11:03:00,
2013-03-10 07:08:00,41.0,33.3,30.20,NNE,18,0.0,0.0,74,0.00,,CLR,0.00,VWS V14.00,2013-03-10 11:08:00,
2013-03-10 07:13:00,40.8,33.2,30.20,NNE,18,0.0,0.0,74,0.00,,CLR,0.00,VWS V14.00,2013-03-10 11:13:00,
2013-03-10 07:18:00,40.7,33.1,30.20,NNE,18,0.0,0.0,74,0.00,,CLR,0.00,VWS V14.00,2013-03-10 11:18:00,
2013-03-10 07:23:00,40.6,33.0,30.20,NNE,18,0.0,0.0,74,0.00,,CLR,0.00,VWS V14.00,2013-03-10 11:23:00,
2013-03-10 07:28:00,40.6,32.9,30.20,NNE,18,0.0,0.0,74,0.00,,CLR,0.00,VWS V14.00,2013-03-10 11:28:00,
2013-03-10 07:33:00,40.8,33.1,30.20,NNE,18,0.0,0.0,74,0.00,,CLR,0.00,VWS V14.00,2013-03-10 11:33:00,
2013-03-10 07:38:00,40.6,32.9,30.20,NNE,18,0.0,0.0,74,0.00,,CLR,0.00,VWS V14.00,2013-03-10 11:38:00,
2013-03-10 07:43:00,40.8,33.2,30.20,NNE,18,0.0,0.0,74,0.00,,CLR,0.00,VWS V14.00,2013-03-10 11:43:00,
2013-03-10 07:48:00,40.6,33.3,30.20,NNE,18,0.0,0.0,75,0.00,,CLR,0.00,VWS V14.00,2013-03-10 11:48:00,
2013-03-10 07:53:00,40.5,33.3,30.20,NNE,18,0.0,0.0,75,0.00,,CLR,0.00,VWS V14.00,2013-03-10 11:53:00,
2013-03-10 07:58:00,40.4,33.3,30.20,NNE,18,0.0,0.0,76,0.00,,CLR,0.00,VWS V14.00,2013-03-10 11:58:00,
2013-03-10 08:03:00,40.5,33.4,30.20,NNE,18,0.0,0.0,76,0.00,,CLR,0.00,VWS V14.00,2013-03-10 12:03:00,
2013-03-10 08:08:00,40.6,33.5,30.21,NNE,18,0.0,0.0,76,0.00,,CLR,0.00,VWS V14.00,2013-03-10 12:08:00,
2013-03-10 08:13:00,40.7,33.6,30.21,NNE,18,0.0,0.0,76,0.00,,CLR,0.00,VWS V14.00,2013-03-10 12:13:00,
2013-03-10 08:18:00,41.1,33.9,30.21,NNE,18,0.0,0.0,75,0.00,,CLR,0.00,VWS V14.00,2013-03-10 12:18:00,
2013-03-10 08:23:00,41.1,33.8,30.21,NNE,18,0.0,0.0,75,0.00,,CLR,0.00,VWS V14.00,2013-03-10 12:23:00,
2013-03-10 08:28:00,40.0,32.7,30.21,NNE,18,0.0,0.0,75,0.00,,CLR,0.00,VWS V14.00,2013-03-10 12:28:00,
2013-03-10 08:33:00,41.8,34.2,30.22,NNE,18,0.0,0.0,74,0.00,,CLR,0.00,VWS V14.00,2013-03-10 12:33:00,
2013-03-10 08:38:00,41.5,33.6,30.22,NNE,18,0.0,0.0,73,0.00,,CLR,0.00,VWS V14.00,2013-03-10 12:38:00,
2013-03-10 08:43:00,39.8,31.8,30.22,NNE,18,0.0,0.0,73,0.00,,CLR,0.00,VWS V14.00,2013-03-10 12:43:00,
2013-03-10 08:48:00,37.0,28.7,30.22,NNE,18,0.0,0.0,72,0.00,,CLR,0.00,VWS V14.00,2013-03-10 12:48:00,
2013-03-10 08:53:00,37.9,29.3,30.22,NNE,18,0.0,0.0,71,0.00,,CLR,0.00,VWS V14.00,2013-03-10 12:53:00,
2013-03-10 08:58:00,35.0,26.2,30.22,NNE,18,0.0,0.0,70,0.00,,CLR,0.00,VWS V14.00,2013-03-10 12:58:00,
2013-03-10 09:03:00,32.5,23.2,30.22,SW,217,0.0,4.6,68,0.00,,CLR,0.00,VWS V14.00,2013-03-10 13:03:00,
2013-03-10 09:08:00,35.5,25.8,30.23,SW,217,0.0,4.6,67,0.00,,CLR,0.00,VWS V14.00,2013-03-10 13:08:00,
2013-03-10 09:13:00,46.1,35.5,30.23,SW,217,0.0,4.6,66,0.00,,CLR,0.00,VWS V14.00,2013-03-10 13:13:00,
2013-03-10 09:18:00,46.2,35.5,30.23,SW,217,0.0,0.0,66,0.00,,CLR,0.00,VWS V14.00,2013-03-10 13:18:00,
2013-03-10 09:23:00,43.3,32.3,30.23,SW,217,0.0,0.0,65,0.00,,CLR,0.00,VWS V14.00,2013-03-10 13:23:00,
2013-03-10 09:28:00,44.4,32.7,30.23,South,191,3.2,6.2,63,0.00,,CLR,0.00,VWS V14.00,2013-03-10 13:28:00,
2013-03-10 09:33:00,46.5,34.6,30.23,SSW,201,5.8,5.8,63,0.00,,CLR,0.00,VWS V14.00,2013-03-10 13:33:00,
2013-03-10 09:38:00,47.7,35.0,30.23,SSW,207,5.1,8.8,61,0.00,,CLR,0.00,VWS V14.00,2013-03-10 13:38:00,
2013-03-10 09:43:00,48.8,35.8,30.23,SSW,208,5.2,8.8,61,0.00,,CLR,0.00,VWS V14.00,2013-03-10 13:43:00,
2013-03-10 09:48:00,49.2,36.1,30.23,South,186,0.0,5.1,60,0.00,,CLR,0.00,VWS V14.00,2013-03-10 13:48:00,
2013-03-10 09:53:00,49.0,35.7,30.24,South,191,0.0,5.9,60,0.00,,CLR,0.00,VWS V14.00,2013-03-10 13:53:00,
2013-03-10 09:58:00,48.8,34.8,30.23,SE,129,0.0,9.6,58,0.00,,CLR,0.00,VWS V14.00,2013-03-10 13:58:00,
2013-03-10 10:03:00,49.6,34.9,30.24,SSW,212,0.0,6.3,57,0.00,,CLR,0.00,VWS V14.00,2013-03-10 14:03:00,
2013-03-10 10:08:00,49.4,33.7,30.24,WSW,240,5.0,9.6,55,0.00,,CLR,0.00,VWS V14.00,2013-03-10 14:08:00,
2013-03-10 10:13:00,50.3,34.3,30.24,SW,233,7.1,9.6,54,0.00,,CLR,0.00,VWS V14.00,2013-03-10 14:13:00,
2013-03-10 10:18:00,50.2,33.8,30.24,SSW,198,6.0,9.1,53,0.00,,CLR,0.00,VWS V14.00,2013-03-10 14:18:00,
2013-03-10 10:23:00,50.6,34.2,30.24,SSW,200,0.0,9.1,53,0.00,,CLR,0.00,VWS V14.00,2013-03-10 14:23:00,
2013-03-10 10:28:00,50.8,33.8,30.24,SW,236,0.0,9.1,52,0.00,,CLR,0.00,VWS V14.00,2013-03-10 14:28:00,
2013-03-10 10:33:00,50.2,32.9,30.24,SSW,197,3.2,7.6,51,0.00,,CLR,0.00,VWS V14.00,2013-03-10 14:33:00,
2013-03-10 10:38:00,50.2,32.4,30.23,SSW,210,4.7,7.6,50,0.00,,CLR,0.00,VWS V14.00,2013-03-10 14:38:00,
2013-03-10 10:43:00,51.1,32.7,30.23,WSW,240,4.7,8.6,49,0.00,,CLR,0.00,VWS V14.00,2013-03-10 14:43:00,
2013-03-10 10:48:00,49.9,31.7,30.24,SSW,197,0.0,5.7,49,0.00,,CLR,0.00,VWS V14.00,2013-03-10 14:48:00,
2013-03-10 10:53:00,51.2,32.8,30.23,SSW,205,8.2,8.2,49,0.00,,CLR,0.00,VWS V14.00,2013-03-10 14:53:00,
2013-03-10 10:58:00,51.3,32.3,30.23,SSE,148,0.0,8.2,48,0.00,,CLR,0.00,VWS V14.00,2013-03-10 14:58:00,
2013-03-10 11:03:00,50.1,30.6,30.23,SSW,193,3.4,9.8,47,0.00,,CLR,0.00,VWS V14.00,2013-03-10 15:03:00,
2013-03-10 11:08:00,51.3,31.7,30.23,SSW,204,6.5,9.8,47,0.00,,CLR,0.00,VWS V14.00,2013-03-10 15:08:00,
2013-03-10 11:13:00,50.8,30.2,30.23,South,183,5.2,11.1,45,0.00,,CLR,0.00,VWS V14.00,2013-03-10 15:13:00,
2013-03-10 11:18:00,50.9,30.7,30.23,SSW,198,3.2,6.5,46,0.00,,CLR,0.00,VWS V14.00,2013-03-10 15:18:00,
2013-03-10 11:23:00,51.2,30.5,30.23,South,179,0.0,6.8,45,0.00,,CLR,0.00,VWS V14.00,2013-03-10 15:23:00,
2013-03-10 11:28:00,51.6,30.4,30.23,SW,218,0.0,8.5,44,0.00,,CLR,0.00,VWS V14.00,2013-03-10 15:28:00,
2013-03-10 11:33:00,52.0,30.6,30.22,SSW,212,4.5,7.5,44,0.00,,CLR,0.00,VWS V14.00,2013-03-10 15:33:00,
2013-03-10 11:38:00,51.9,30.4,30.22,West,267,2.4,7.5,44,0.00,,CLR,0.00,VWS V14.00,2013-03-10 15:38:00,
2013-03-10 11:43:00,51.4,29.8,30.22,SW,215,7.4,10.0,43,0.00,,CLR,0.00,VWS V14.00,2013-03-10 15:43:00,
2013-03-10 11:48:00,51.8,30.8,30.22,SW,228,0.0,6.6,44,0.00,,CLR,0.00,VWS V14.00,2013-03-10 15:48:00,
2013-03-10 11:53:00,51.4,30.1,30.22,SW,235,3.1,6.8,44,0.00,,CLR,0.00,VWS V14.00,2013-03-10 15:53:00,
2013-03-10 11:58:00,51.8,29.9,30.22,SSW,205,5.4,7.8,43,0.00,,CLR,0.00,VWS V14.00,2013-03-10 15:58:00,
2013-03-10 12:03:00,52.1,29.9,30.22,SW,225,1.7,5.5,42,0.00,,CLR,0.00,VWS V14.00,2013-03-10 16:03:00,
2013-03-10 12:08:00,53.2,30.8,30.22,ESE,118,3.5,6.9,42,0.00,,CLR,0.00,VWS V14.00,2013-03-10 16:08:00,
2013-03-10 12:13:00,52.9,29.8,30.22,ESE,115,2.6,8.7,41,0.00,,CLR,0.00,VWS V14.00,2013-03-10 16:13:00,
2013-03-10 12:18:00,51.7,28.5,30.22,SSW,202,0.0,6.8,40,0.00,,CLR,0.00,VWS V14.00,2013-03-10 16:18:00,
2013-03-10 12:23:00,51.7,28.3,30.22,SSW,202,0.0,8.3,40,0.00,,CLR,0.00,VWS V14.00,2013-03-10 16:23:00,
2013-03-10 12:28:00,53.9,30.6,30.22,SE,128,0.0,8.3,41,0.00,,CLR,0.00,VWS V14.00,2013-03-10 16:28:00,
2013-03-10 12:33:00,55.4,31.4,30.22,South,191,5.8,7.1,40,0.00,,CLR,0.00,VWS V14.00,2013-03-10 16:33:00,
2013-03-10 12:38:00,56.9,32.9,30.22,South,186,0.0,7.5,40,0.00,,CLR,0.00,VWS V14.00,2013-03-10 16:38:00,
2013-03-10 12:43:00,58.7,34.1,30.22,SSE,163,7.4,8.3,39,0.00,,CLR,0.00,VWS V14.00,2013-03-10 16:43:00,
2013-03-10 12:48:00,59.8,35.5,30.21,SW,221,6.7,8.1,40,0.00,,CLR,0.00,VWS V14.00,2013-03-10 16:48:00,
2013-03-10 12:53:00,59.6,35.0,30.21,SSW,212,4.3,8.6,40,0.00,,CLR,0.00,VWS V14.00,2013-03-10 16:53:00,
2013-03-10 12:58:00,60.6,35.5,30.21,SW,229,6.5,9.4,39,0.00,,CLR,0.00,VWS V14.00,2013-03-10 16:58:00,
2013-03-10 13:03:00,60.6,35.8,30.21,SSE,155,5.0,8.9,39,0.00,,CLR,0.00,VWS V14.00,2013-03-10 17:03:00,
2013-03-10 13:08:00,59.9,35.4,30.20,West,273,0.0,8.9,40,0.00,,CLR,0.00,VWS V14.00,2013-03-10 17:08:00,
2013-03-10 13:13:00,61.4,36.5,30.20,SW,218,0.0,8.9,39,0.00,,CLR,0.00,VWS V14.00,2013-03-10 17:13:00,
2013-03-10 13:18:00,61.5,36.1,30.20,SSW,197,5.0,9.2,39,0.00,,CLR,0.00,VWS V14.00,2013-03-10 17:18:00,
2013-03-10 13:23:00,61.6,36.2,30.19,West,270,0.0,9.5,39,0.00,,CLR,0.00,VWS V14.00,2013-03-10 17:23:00,
2013-03-10 13:28:00,61.5,36.1,30.19,SSW,211,3.3,9.5,39,0.00,,CLR,0.00,VWS V14.00,2013-03-10 17:28:00,
2013-03-10 13:33:00,61.5,35.8,30.19,East,80,0.0,5.9,38,0.00,,CLR,0.00,VWS V14.00,2013-03-10 17:33:00,
2013-03-10 13:38:00,62.3,36.9,30.19,SW,229,0.0,8.8,39,0.00,,CLR,0.00,VWS V14.00,2013-03-10 17:38:00,
2013-03-10 13:43:00,62.6,36.5,30.19,SW,232,6.6,8.8,38,0.00,,CLR,0.00,VWS V14.00,2013-03-10 17:43:00,
2013-03-10 13:48:00,62.7,36.4,30.19,West,273,5.5,9.6,38,0.00,,CLR,0.00,VWS V14.00,2013-03-10 17:48:00,
2013-03-10 13:53:00,62.5,36.8,30.19,West,274,4.7,9.6,38,0.00,,CLR,0.00,VWS V14.00,2013-03-10 17:53:00,
2013-03-10 13:58:00,62.2,36.4,30.18,SE,139,0.0,9.6,38,0.00,,CLR,0.00,VWS V14.00,2013-03-10 17:58:00,
2013-03-10 14:03:00,62.4,36.4,30.18,WSW,255,5.7,8.2,38,0.00,,CLR,0.00,VWS V14.00,2013-03-10 18:03:00,
2013-03-10 14:08:00,62.1,36.6,30.18,WNW,283,4.6,9.7,39,0.00,,CLR,0.00,VWS V14.00,2013-03-10 18:08:00,
2013-03-10 14:13:00,62.1,36.9,30.17,West,276,0.0,9.7,39,0.00,,CLR,0.00,VWS V14.00,2013-03-10 18:13:00,
2013-03-10 14:18:00,62.6,36.7,30.17,ENE,69,0.0,8.3,38,0.00,,CLR,0.00,VWS V14.00,2013-03-10 18:18:00,
2013-03-10 14:23:00,62.0,34.7,30.16,SW,218,6.0,9.3,36,0.00,,CLR,0.00,VWS V14.00,2013-03-10 18:23:00,
2013-03-10 14:28:00,62.0,34.9,30.16,South,181,0.0,9.3,36,0.00,,CLR,0.00,VWS V14.00,2013-03-10 18:28:00,
2013-03-10 14:33:00,62.9,35.0,30.16,SSW,200,8.9,8.9,35,0.00,,CLR,0.00,VWS V14.00,2013-03-10 18:33:00,
2013-03-10 14:38:00,62.7,34.7,30.16,SSW,197,6.3,10.1,35,0.00,,CLR,0.00,VWS V14.00,2013-03-10 18:38:00,
2013-03-10 14:43:00,62.4,34.7,30.15,SE,141,0.0,10.1,35,0.00,,CLR,0.00,VWS V14.00,2013-03-10 18:43:00,
2013-03-10 14:48:00,62.0,34.1,30.15,SSW,210,4.9,8.3,35,0.00,,CLR,0.00,VWS V14.00,2013-03-10 18:48:00,
2013-03-10 14:53:00,61.6,34.1,30.15,South,173,7.1,9.8,36,0.00,,CLR,0.00,VWS V14.00,2013-03-10 18:53:00,
2013-03-10 14:58:00,62.0,34.5,30.15,South,173,3.0,12.3,36,0.00,,CLR,0.00,VWS V14.00,2013-03-10 18:58:00,
2013-03-10 15:03:00,62.5,34.9,30.15,WSW,255,2.9,5.5,36,0.00,,CLR,0.00,VWS V14.00,2013-03-10 19:03:00,
2013-03-10 15:08:00,61.2,33.6,30.15,SSW,194,0.0,6.4,35,0.00,,CLR,0.00,VWS V14.00,2013-03-10 19:08:00,
2013-03-10 15:13:00,55.7,28.4,30.15,SE,145,3.5,7.9,35,0.00,,CLR,0.00,VWS V14.00,2013-03-10 19:13:00,
2013-03-10 15:18:00,60.2,31.8,30.14,SW,221,0.0,4.5,34,0.00,,CLR,0.00,VWS V14.00,2013-03-10 19:18:00,
2013-03-10 15:23:00,59.2,31.4,30.14,ESE,121,6.9,6.9,35,0.00,,CLR,0.00,VWS V14.00,2013-03-10 19:23:00,
2013-03-10 15:28:00,63.7,35.3,30.15,South,190,4.2,7.8,35,0.00,,CLR,0.00,VWS V14.00,2013-03-10 19:28:00,
2013-03-10 15:33:00,60.0,32.4,30.14,WSW,243,0.0,7.3,35,0.00,,CLR,0.00,VWS V14.00,2013-03-10 19:33:00,
2013-03-10 15:38:00,61.3,32.9,30.14,SSW,212,9.6,13.4,34,0.00,,CLR,0.00,VWS V14.00,2013-03-10 19:38:00,
2013-03-10 15:43:00,61.4,32.7,30.14,SSW,202,6.1,13.4,34,0.00,,CLR,0.00,VWS V14.00,2013-03-10 19:43:00,
2013-03-10 15:48:00,61.8,33.1,30.14,SW,218,4.5,6.6,34,0.00,,CLR,0.00,VWS V14.00,2013-03-10 19:48:00,
2013-03-10 15:53:00,62.1,33.4,30.14,ESE,118,4.2,7.9,34,0.00,,CLR,0.00,VWS V14.00,2013-03-10 19:53:00,
2013-03-10 15:58:00,63.9,34.1,30.14,East,101,0.0,9.8,33,0.00,,CLR,0.00,VWS V14.00,2013-03-10 19:58:00,
2013-03-10 16:03:00,64.7,34.1,30.14,SSW,194,7.5,12.2,32,0.00,,CLR,0.00,VWS V14.00,2013-03-10 20:03:00,
2013-03-10 16:08:00,64.8,34.8,30.14,SSE,156,3.3,12.2,33,0.00,,CLR,0.00,VWS V14.00,2013-03-10 20:08:00,
2013-03-10 16:13:00,64.8,34.2,30.14,ESE,122,0.0,12.2,32,0.00,,CLR,0.00,VWS V14.00,2013-03-10 20:13:00,
2013-03-10 16:18:00,64.6,34.0,30.14,SSW,200,2.6,8.5,32,0.00,,CLR,0.00,VWS V14.00,2013-03-10 20:18:00,
2013-03-10 16:23:00,64.5,33.2,30.14,SSW,204,3.0,13.2,31,0.00,,CLR,0.00,VWS V14.00,2013-03-10 20:23:00,
2013-03-10 16:28:00,64.3,33.2,30.13,SE,128,7.0,13.2,31,0.00,,CLR,0.00,VWS V14.00,2013-03-10 20:28:00,
2013-03-10 16:33:00,64.1,33.6,30.13,SSW,200,5.0,7.0,32,0.00,,CLR,0.00,VWS V14.00,2013-03-10 20:33:00,
2013-03-10 16:38:00,64.9,33.3,30.13,SSE,155,5.6,9.4,31,0.00,,CLR,0.00,VWS V14.00,2013-03-10 20:38:00,
2013-03-10 16:43:00,65.1,33.3,30.13,SE,139,0.0,9.4,30,0.00,,CLR,0.00,VWS V14.00,2013-03-10 20:43:00,
2013-03-10 16:48:00,64.6,33.2,30.13,SSE,163,5.0,9.2,31,0.00,,CLR,0.00,VWS V14.00,2013-03-10 20:48:00,
2013-03-10 16:53:00,64.9,33.6,30.13,SSW,194,7.1,9.7,31,0.00,,CLR,0.00,VWS V14.00,2013-03-10 20:53:00,
2013-03-10 16:58:00,64.7,33.5,30.13,SSE,165,0.0,9.7,31,0.00,,CLR,0.00,VWS V14.00,2013-03-10 20:58:00,
2013-03-10 17:03:00,64.8,33.2,30.13,SW,214,6.8,10.6,31,0.00,,CLR,0.00,VWS V14.00,2013-03-10 21:03:00,
2013-03-10 17:08:00,64.3,32.8,30.13,SW,225,6.6,10.6,31,0.00,,CLR,0.00,VWS V14.00,2013-03-10 21:08:00,
2013-03-10 17:13:00,64.7,33.6,30.13,SW,231,4.8,10.6,31,0.00,,CLR,0.00,VWS V14.00,2013-03-10 21:13:00,
2013-03-10 17:18:00,65.0,34.0,30.13,SW,228,3.4,8.8,31,0.00,,CLR,0.00,VWS V14.00,2013-03-10 21:18:00,
2013-03-10 17:23:00,65.1,34.0,30.13,SW,217,4.5,8.8,31,0.00,,CLR,0.00,VWS V14.00,2013-03-10 21:23:00,
2013-03-10 17:28:00,65.3,34.4,30.13,SSE,160,0.0,9.3,32,0.00,,CLR,0.00,VWS V14.00,2013-03-10 21:28:00,
2013-03-10 17:33:00,65.4,34.2,30.13,ESE,112,4.5,8.0,31,0.00,,CLR,0.00,VWS V14.00,2013-03-10 21:33:00,
2013-03-10 17:38:00,65.0,34.1,30.13,SSE,158,5.2,9.4,32,0.00,,CLR,0.00,VWS V14.00,2013-03-10 21:38:00,
2013-03-10 17:43:00,58.5,28.8,30.13,SW,228,6.4,9.4,32,0.00,,CLR,0.00,VWS V14.00,2013-03-10 21:43:00,
2013-03-10 17:48:00,57.9,28.7,30.13,SW,221,6.5,8.6,33,0.00,,CLR,0.00,VWS V14.00,2013-03-10 21:48:00,
2013-03-10 17:53:00,63.0,33.8,30.13,South,187,0.0,9.4,34,0.00,,CLR,0.00,VWS V14.00,2013-03-10 21:53:00,
2013-03-10 17:59:00,60.1,31.6,30.13,SE,125,4.9,9.4,34,0.00,,CLR,0.00,VWS V14.00,2013-03-10 21:59:00,
2013-03-10 18:04:00,58.8,30.4,30.13,South,174,4.3,7.5,34,0.00,,CLR,0.00,VWS V14.00,2013-03-10 22:04:00,
2013-03-10 18:09:00,60.3,31.5,30.13,SSE,159,5.3,11.2,34,0.00,,CLR,0.00,VWS V14.00,2013-03-10 22:09:00,
2013-03-10 18:14:00,62.0,33.3,30.13,SW,229,4.7,11.2,34,0.00,,CLR,0.00,VWS V14.00,2013-03-10 22:14:00,
2013-03-10 18:19:00,59.9,31.3,30.13,SW,215,5.0,8.3,34,0.00,,CLR,0.00,VWS V14.00,2013-03-10 22:19:00,
2013-03-10 18:24:00,62.1,33.6,30.13,South,179,3.4,8.3,34,0.00,,CLR,0.00,VWS V14.00,2013-03-10 22:24:00,
2013-03-10 18:29:00,59.5,31.1,30.13,South,188,4.4,9.1,34,0.00,,CLR,0.00,VWS V14.00,2013-03-10 22:29:00,
2013-03-10 18:34:00,54.7,27.1,30.14,SSW,193,0.0,8.5,34,0.00,,CLR,0.00,VWS V14.00,2013-03-10 22:34:00,
2013-03-10 18:39:00,61.8,33.6,30.13,ESE,121,5.1,8.5,35,0.00,,CLR,0.00,VWS V14.00,2013-03-10 22:39:00,
2013-03-10 18:44:00,59.8,32.0,30.13,SE,136,5.2,8.5,35,0.00,,CLR,0.00,VWS V14.00,2013-03-10 22:44:00,
2013-03-10 18:49:00,54.1,27.1,30.14,South,172,0.0,8.4,35,0.00,,CLR,0.00,VWS V14.00,2013-03-10 22:49:00,
2013-03-10 18:54:00,54.4,27.6,30.14,SE,131,0.0,8.4,35,0.00,,CLR,0.00,VWS V14.00,2013-03-10 22:54:00,
2013-03-10 18:59:00,54.6,27.9,30.14,South,186,0.0,8.4,36,0.00,,CLR,0.00,VWS V14.00,2013-03-10 22:59:00,
2013-03-10 19:04:00,59.6,32.6,30.14,SSE,167,0.0,5.6,36,0.00,,CLR,0.00,VWS V14.00,2013-03-10 23:04:00,
2013-03-10 19:09:00,60.5,33.4,30.14,South,183,0.0,6.3,36,0.00,,CLR,0.00,VWS V14.00,2013-03-10 23:09:00,
2013-03-10 19:14:00,61.5,34.6,30.13,ESE,111,0.0,6.3,36,0.00,,CLR,0.00,VWS V14.00,2013-03-10 23:14:00,
2013-03-10 19:19:00,55.3,29.4,30.13,SSE,148,0.0,5.0,37,0.00,,CLR,0.00,VWS V14.00,2013-03-10 23:19:00,
2013-03-10 19:24:00,56.9,31.1,30.13,South,181,0.0,5.0,37,0.00,,CLR,0.00,VWS V14.00,2013-03-10 23:24:00,
2013-03-10 19:29:00,61.5,35.5,30.13,South,181,0.0,5.0,38,0.00,,CLR,0.00,VWS V14.00,2013-03-10 23:29:00,
2013-03-10 19:34:00,59.4,33.9,30.13,SSE,163,0.0,2.9,38,0.00,,CLR,0.00,VWS V14.00,2013-03-10 23:34:00,
2013-03-10 19:39:00,58.5,33.3,30.13,SSE,163,0.0,2.9,38,0.00,,CLR,0.00,VWS V14.00,2013-03-10 23:39:00,
2013-03-10 19:44:00,56.2,31.4,30.13,SE,136,0.0,3.4,39,0.00,,CLR,0.00,VWS V14.00,2013-03-10 23:44:00,
2013-03-10 19:49:00,58.1,33.3,30.14,South,188,0.0,3.3,39,0.00,,CLR,0.00,VWS V14.00,2013-03-10 23:49:00,
2013-03-10 19:54:00,55.5,31.1,30.13,South,169,0.0,3.3,39,0.00,,CLR,0.00,VWS V14.00,2013-03-10 23:54:00,
2013-03-10 19:59:00,54.7,30.5,30.13,South,169,0.0,3.3,39,0.00,,CLR,0.00,VWS V14.00,2013-03-10 23:59:00,
2013-03-10 20:04:00,57.7,33.2,30.13,South,186,0.0,3.4,40,0.00,,CLR,0.00,VWS V14.00,2013-03-11 00:04:00,
2013-03-10 20:09:00,56.6,32.4,30.13,South,186,0.0,3.4,40,0.00,,CLR,0.00,VWS V14.00,2013-03-11 00:09:00,
2013-03-10 20:14:00,56.8,32.6,30.13,South,170,0.0,5.3,40,0.00,,CLR,0.00,VWS V14.00,2013-03-11 00:14:00,
2013-03-10 20:19:00,56.4,32.3,30.13,South,176,0.0,4.1,40,0.00,,CLR,0.00,VWS V14.00,2013-03-11 00:19:00,
2013-03-10 20:24:00,55.8,31.8,30.13,SSW,200,0.0,4.1,40,0.00,,CLR,0.00,VWS V14.00,2013-03-11 00:24:00,
2013-03-10 20:29:00,54.7,30.9,30.14,SSW,200,0.0,4.1,40,0.00,,CLR,0.00,VWS V14.00,2013-03-11 00:29:00,
2013-03-10 20:34:00,53.7,30.0,30.14,SSW,200,0.0,0.0,40,0.00,,CLR,0.00,VWS V14.00,2013-03-11 00:34:00,
2013-03-10 20:39:00,53.5,29.9,30.14,SSW,200,0.0,0.0,40,0.00,,CLR,0.00,VWS V14.00,2013-03-11 00:39:00,
2013-03-10 20:44:00,54.9,31.3,30.15,SSW,200,0.0,0.0,40,0.00,,CLR,0.00,VWS V14.00,2013-03-11 00:44:00,
2013-03-10 20:49:00,54.5,31.1,30.15,SSW,200,0.0,0.0,41,0.00,,CLR,0.00,VWS V14.00,2013-03-11 00:49:00,
2013-03-10 20:54:00,52.0,29.0,30.15,SSW,200,0.0,0.0,41,0.00,,CLR,0.00,VWS V14.00,2013-03-11 00:54:00,
2013-03-10 20:59:00,52.4,29.5,30.15,SSW,200,0.0,0.0,41,0.00,,CLR,0.00,VWS V14.00,2013-03-11 00:59:00,
2013-03-10 21:04:00,52.2,29.5,30.15,SSW,200,0.0,0.0,41,0.00,,CLR,0.00,VWS V14.00,2013-03-11 01:04:00,
2013-03-10 21:09:00,52.2,29.5,30.15,SSW,200,0.0,0.0,41,0.00,,CLR,0.00,VWS V14.00,2013-03-11 01:09:00,
2013-03-10 21:14:00,52.9,30.2,30.15,SSW,200,0.0,0.0,42,0.00,,CLR,0.00,VWS V14.00,2013-03-11 01:14:00,
2013-03-10 21:19:00,53.3,30.6,30.15,SSW,200,0.0,0.0,42,0.00,,CLR,0.00,VWS V14.00,2013-03-11 01:19:00,
2013-03-10 21:24:00,52.8,30.2,30.15,SSW,200,0.0,0.0,42,0.00,,CLR,0.00,VWS V14.00,2013-03-11 01:24:00,
2013-03-10 21:29:00,52.8,30.3,30.15,SSW,200,0.0,0.0,42,0.00,,CLR,0.00,VWS V14.00,2013-03-11 01:29:00,
2013-03-10 21:34:00,51.9,29.5,30.15,SSW,200,0.0,0.0,42,0.00,,CLR,0.00,VWS V14.00,2013-03-11 01:34:00,
2013-03-10 21:39:00,51.8,29.4,30.15,SSW,208,0.0,2.9,42,0.00,,CLR,0.00,VWS V14.00,2013-03-11 01:39:00,
2013-03-10 21:44:00,52.1,29.6,30.15,SSW,207,0.0,5.0,42,0.00,,CLR,0.00,VWS V14.00,2013-03-11 01:44:00,
2013-03-10 21:49:00,51.3,29.0,30.15,SSW,207,0.0,0.0,42,0.00,,CLR,0.00,VWS V14.00,2013-03-11 01:49:00,
2013-03-10 21:54:00,51.6,29.0,30.16,SW,222,3.2,3.2,42,0.00,,CLR,0.00,VWS V14.00,2013-03-11 01:54:00,
2013-03-10 21:59:00,51.2,28.5,30.16,SSW,211,6.2,6.2,41,0.00,,CLR,0.00,VWS V14.00,2013-03-11 01:59:00,
2013-03-10 22:04:00,52.0,29.2,30.15,SSW,197,3.0,3.0,41,0.00,,CLR,0.00,VWS V14.00,2013-03-11 02:04:00,
2013-03-10 22:09:00,52.0,29.5,30.16,South,187,0.0,3.5,42,0.00,,CLR,0.00,VWS V14.00,2013-03-11 02:09:00,
2013-03-10 22:14:00,51.7,28.9,30.16,SSW,195,0.0,6.2,41,0.00,,CLR,0.00,VWS V14.00,2013-03-11 02:14:00,
2013-03-10 22:19:00,52.1,28.9,30.16,South,174,0.0,6.0,41,0.00,,CLR,0.00,VWS V14.00,2013-03-11 02:19:00,
2013-03-10 22:24:00,51.3,27.9,30.17,South,174,0.0,6.0,40,0.00,,CLR,0.00,VWS V14.00,2013-03-11 02:24:00,
2013-03-10 22:29:00,52.3,28.6,30.17,SSW,195,4.2,6.0,40,0.00,,CLR,0.00,VWS V14.00,2013-03-11 02:29:00,
2013-03-10 22:34:00,51.6,28.3,30.16,SSW,200,0.0,3.1,40,0.00,,CLR,0.00,VWS V14.00,2013-03-11 02:34:00,
2013-03-10 22:39:00,52.3,29.1,30.16,South,184,0.0,3.4,41,0.00,,CLR,0.00,VWS V14.00,2013-03-11 02:39:00,
2013-03-10 22:44:00,51.4,28.0,30.16,SSE,162,2.8,5.8,40,0.00,,CLR,0.00,VWS V14.00,2013-03-11 02:44:00,
2013-03-10 22:49:00,51.3,27.8,30.17,SSE,166,0.0,7.3,40,0.00,,CLR,0.00,VWS V14.00,2013-03-11 02:49:00,
2013-03-10 22:54:00,51.6,28.2,30.16,South,169,0.0,7.3,40,0.00,,CLR,0.00,VWS V14.00,2013-03-11 02:54:00,
2013-03-10 22:59:00,51.3,28.2,30.16,South,169,0.0,7.3,41,0.00,,CLR,0.00,VWS V14.00,2013-03-11 02:59:00,
2013-03-10 23:04:00,51.2,28.0,30.16,South,169,0.0,0.0,40,0.00,,CLR,0.00,VWS V14.00,2013-03-11 03:04:00,
2013-03-10 23:09:00,51.3,28.1,30.16,South,169,0.0,5.8,40,0.00,,CLR,0.00,VWS V14.00,2013-03-11 03:09:00,
2013-03-10 23:14:00,51.3,28.1,30.16,South,169,0.0,5.8,40,0.00,,CLR,0.00,VWS V14.00,2013-03-11 03:14:00,
2013-03-10 23:19:00,51.4,28.3,30.16,South,169,0.0,0.0,41,0.00,,CLR,0.00,VWS V14.00,2013-03-11 03:19:00,
2013-03-10 23:24:00,51.1,28.0,30.15,South,191,0.0,5.6,41,0.00,,CLR,0.00,VWS V14.00,2013-03-11 03:24:00,
2013-03-10 23:29:00,51.0,27.8,30.15,SE,135,0.0,5.6,40,0.00,,CLR,0.00,VWS V14.00,2013-03-11 03:29:00,
2013-03-10 23:34:00,50.9,27.9,30.15,SE,135,0.0,0.0,41,0.00,,CLR,0.00,VWS V14.00,2013-03-11 03:34:00,
2013-03-10 23:39:00,50.9,27.8,30.15,SSW,204,0.0,4.7,40,0.00,,CLR,0.00,VWS V14.00,2013-03-11 03:39:00,
2013-03-10 23:44:00,50.6,27.4,30.15,SSE,149,0.0,4.7,40,0.00,,CLR,0.00,VWS V14.00,2013-03-11 03:44:00,
2013-03-10 23:49:00,50.8,27.6,30.15,SE,139,0.0,5.6,40,0.00,,CLR,0.00,VWS V14.00,2013-03-11 03:49:00,
2013-03-10 23:54:00,50.0,26.8,30.14,SE,139,0.0,5.6,40,0.00,,CLR,0.00,VWS V14.00,2013-03-11 03:54:00,
2013-03-10 23:59:00,49.5,26.3,30.14,SSW,193,4.5,6.8,40,0.00,,CLR,0.00,VWS V14.00,2013-03-11 03:59:00,